DateTimeUTC,F1_A11,F1_S11,BsB_S11,BsG_S11,BsR_S11,BbsB_S11,BbsG_S11,BbsR_S11,BaB_A11,BaG_A11,BaR_A11,Tu_S11,T_S11,Uu_S11,U_S11,P_S11,T1_A11
2021-12-05T01:00:00Z,00000200,21000000,,,,,,,-000.13,-000.27,0000.10,19.2,25.9,,00.0,0632.2,31.0
2021-12-05T01:01:00Z,00000200,21000000,,,,,,,-000.08,-000.10,-000.29,19.2,25.9,,00.0,0632.2,31.0
2021-12-05T01:02:00Z,00000200,21000000,,,,,,,0000.22,-000.04,0000.32,19.1,25.9,,00.0,0632.2,31.0
2021-12-05T01:03:00Z,00000200,61000000,,,,,,,-000.01,-000.10,-000.43,19.1,25.9,,00.0,0632.2,31.0
2021-12-05T01:04:00Z,00000200,41000000,0000.01,-000.00,0000.27,-000.23,0000.05,0000.01,0000.09,0000.13,0000.00,19.1,25.7,,00.0,0633.2,31.0
2021-12-05T01:05:00Z,00000200,01000000,-000.30,0000.05,0000.49,0000.51,-000.07,-000.27,-000.08,0000.17,0000.21,19.1,25.6,,00.0,0633.1,31.0
2021-12-05T01:06:00Z,00000200,01000000,0000.29,0000.03,-000.17,0000.57,-000.02,-000.01,0000.09,0000.13,0000.35,19.1,25.6,,00.0,0633.1,31.0
2021-12-05T01:07:00Z,00000200,01000000,0000.06,0000.17,0000.13,0000.24,-000.14,-000.17,0000.16,-000.18,-000.24,19.1,25.6,00.0,00.0,0633.1,31.0
2021-12-05T01:08:00Z,00000200,01000000,-000.33,-000.17,0000.26,-000.21,0000.07,-000.05,-000.14,0000.48,0000.09,19.1,25.6,00.0,00.0,0633.2,31.0
2021-12-05T01:09:00Z,00000200,01000000,0000.69,-000.33,0000.06,0000.07,0000.08,0000.11,0000.21,-000.09,0000.22,19.2,25.6,,00.0,0632.9,31.0
2021-12-05T01:10:00Z,00000200,01000000,-000.47,-000.08,-000.17,-000.44,-000.17,-000.02,0000.30,0000.04,0000.10,19.2,25.6,00.0,00.0,0633.0,31.0
2021-12-05T01:11:00Z,00000200,01000000,0000.38,-000.35,0000.41,-000.26,0000.08,0000.12,0000.08,0000.22,-000.17,19.3,25.6,00.0,00.0,0632.8,31.0
2021-12-05T01:12:00Z,00000200,01000000,0000.06,0000.32,0000.20,0000.21,-000.24,0000.21,-000.10,0000.26,-000.07,19.3,25.6,,00.0,0633.0,31.0
2021-12-05T01:13:00Z,00000200,01000000,0000.13,0000.11,0000.17,-000.12,-000.31,0000.30,0000.20,-000.29,0000.34,19.4,25.6,,00.0,0633.0,31.0
2021-12-05T01:14:00Z,00000200,01000000,0000.17,0000.02,0000.22,0000.13,0000.15,0000.04,-000.12,-000.33,-000.27,19.4,25.7,,00.0,0633.1,31.0
2021-12-05T01:15:00Z,00000200,01000000,-000.26,0000.28,0000.11,-000.19,0000.17,-000.03,0000.32,0000.29,0000.41,19.5,25.7,,00.0,0633.1,31.0
2021-12-05T01:16:00Z,00000200,01000000,-000.20,0000.15,0000.46,-000.09,0000.02,0000.23,-000.19,0000.04,0000.09,19.4,25.7,,00.0,0633.2,31.0
2021-12-05T01:17:00Z,00000200,01000000,-000.94,-000.02,0000.30,0000.04,-000.07,0000.58,-000.05,0000.21,-000.05,19.4,25.7,,00.0,0633.1,31.0
2021-12-05T01:18:00Z,00000200,01000000,-000.39,0000.18,0000.26,0000.13,-000.06,-000.14,-000.02,-000.02,-000.19,19.3,25.7,,00.0,0632.9,31.0
2021-12-05T01:19:00Z,00000200,01000000,0000.23,0000.23,0000.07,-000.17,-000.13,0000.05,0000.27,0000.13,0000.06,19.3,25.7,,00.0,0632.9,31.0
2021-12-05T01:20:00Z,00000200,01000000,-000.24,0000.01,0000.26,0000.26,0000.13,0000.01,-000.04,-000.41,0000.08,19.2,25.7,00.0,00.0,0632.9,31.0
2021-12-05T01:21:00Z,00000200,01000000,-000.02,-000.06,0000.05,-000.60,-000.15,0000.25,-000.09,0000.25,-000.22,19.2,25.6,,00.0,0632.9,31.0
2021-12-05T01:22:00Z,00000200,01000000,0000.05,0000.17,0000.08,-000.04,-000.19,0000.17,0000.08,-000.22,0000.07,19.2,25.6,00.0,00.0,0632.8,31.0
2021-12-05T01:23:00Z,00000200,01000000,-000.06,-000.00,0000.19,0000.14,-000.20,0000.27,-000.04,0000.14,0000.19,19.2,25.6,,00.0,0632.8,31.0
2021-12-05T01:24:00Z,00000200,01000000,-000.27,-000.39,0000.07,0000.57,0000.18,0000.42,0000.21,0000.17,0000.04,19.3,25.6,00.0,00.0,0632.8,31.0
2021-12-05T01:25:00Z,00000200,01000000,0000.05,0000.09,0000.38,-000.46,0000.28,0000.37,-000.01,-000.04,0000.18,19.3,25.6,,00.0,0632.8,31.0
2021-12-05T01:26:00Z,00000200,01000000,-000.25,-000.03,0000.39,0000.26,-000.28,-000.18,-000.12,0000.39,-000.13,19.4,25.6,,00.0,0633.0,31.0
2021-12-05T01:27:00Z,00000200,01000000,-000.68,-000.19,0000.20,-000.71,-000.14,0000.01,-000.22,-000.41,0000.02,19.4,25.7,,00.0,0633.1,31.0
2021-12-05T01:28:00Z,00000200,01000000,0000.11,0000.07,0000.02,-000.62,0000.05,-000.34,0000.31,0000.56,0000.18,19.5,25.7,,00.0,0633.1,31.0
2021-12-05T01:29:00Z,00000200,01000000,0000.34,-000.17,0000.30,-000.16,0000.09,0000.13,0000.20,-000.39,-000.20,19.5,25.7,,00.0,0633.2,31.1
2021-12-05T01:30:00Z,00000200,01000000,0000.09,0000.30,0000.09,0000.44,-000.14,0000.17,0000.00,0000.41,-000.00,19.5,25.7,,00.0,0633.2,31.1
2021-12-05T01:31:00Z,00000200,01000000,0000.19,0000.02,0000.00,0000.02,0000.20,0000.19,0000.02,0000.06,-000.03,19.4,25.7,,00.0,0633.2,31.0
2021-12-05T01:32:00Z,00000200,01000000,-000.67,-000.07,0000.14,0000.69,-000.06,-000.16,0000.07,-000.30,0000.14,19.3,25.7,,00.0,0633.2,31.0
2021-12-05T01:33:00Z,00000200,01000000,0000.39,0000.07,-000.25,0000.46,-000.16,-000.20,0000.06,0000.36,-000.09,19.3,25.7,,00.0,0633.2,31.0
2021-12-05T01:34:00Z,00000200,01000000,0000.50,-000.16,0000.15,-000.32,0000.04,0000.26,-000.10,-000.11,0000.49,19.3,25.6,,00.0,0633.4,31.0
2021-12-05T01:35:00Z,00000200,01000000,-000.87,0000.08,0000.14,0000.76,0000.26,0000.20,-000.05,-000.31,-000.32,19.2,25.6,,00.0,0633.5,31.0
2021-12-05T01:36:00Z,00000200,01000000,0000.09,-000.05,0000.67,-000.16,-000.47,0000.18,-000.16,-000.19,-000.60,19.2,25.6,,00.0,0633.6,31.0
2021-12-05T01:37:00Z,00000200,01000000,-000.18,-000.15,0000.34,0000.21,-000.18,-000.16,0000.16,0000.16,0000.59,19.2,25.6,,00.0,0633.7,31.0
2021-12-05T01:38:00Z,00000200,01000000,-000.37,-000.17,0000.54,0000.19,-000.05,0000.33,0000.29,0000.48,-000.02,19.2,25.6,,00.0,0633.6,31.0
2021-12-05T01:39:00Z,00000200,01000000,-000.00,-000.15,0000.23,0000.81,-000.09,0000.21,-000.25,0000.02,0000.07,19.2,25.6,,00.0,0633.5,31.0
2021-12-05T01:40:00Z,00000200,01000000,0000.13,-000.09,0000.29,0000.11,-000.26,0000.36,0000.67,0000.24,0000.20,19.3,25.6,,00.0,0633.6,31.0
2021-12-05T01:41:00Z,00000200,01000000,-000.01,0000.01,-000.01,0000.75,-000.12,0000.09,-000.26,-000.22,0000.41,19.3,25.6,,00.0,0633.6,31.0
2021-12-05T01:42:00Z,00000200,01000000,-000.62,-000.05,0000.24,-000.14,-000.27,-000.14,0000.44,0000.23,-000.49,19.4,25.6,,00.0,0633.6,31.0
2021-12-05T01:43:00Z,00000200,01000000,0000.05,-000.20,0000.35,0000.08,-000.07,-000.05,-000.40,-000.03,0000.56,19.5,25.7,,00.0,0633.6,31.1
2021-12-05T01:44:00Z,00000200,01000000,0000.27,-000.35,0000.38,0000.02,-000.12,0000.09,0000.49,0000.41,-000.14,19.5,25.7,,00.0,0633.7,31.1
2021-12-05T01:45:00Z,00000200,01000000,-000.66,0000.27,0000.16,-000.12,0000.03,0000.16,-000.19,-000.39,-000.12,19.5,25.7,,00.0,0633.7,31.0
2021-12-05T01:46:00Z,00000200,01000000,-000.86,-000.34,-000.03,0000.02,-000.17,-000.19,-000.39,-000.16,-000.18,19.5,25.7,,00.0,0633.7,31.0
2021-12-05T01:47:00Z,00000200,01000000,0000.27,-000.13,0000.23,0000.01,-000.21,0000.38,-000.03,0000.05,-000.04,19.4,25.7,,00.0,0633.8,31.0
2021-12-05T01:48:00Z,00000200,01000000,-001.14,-000.40,0000.38,-000.17,0000.16,0000.13,0000.21,-000.17,0000.04,19.4,25.7,,00.0,0633.8,31.1
2021-12-05T01:49:00Z,00000200,01000000,0000.05,-000.12,0000.43,0000.13,0000.00,0000.17,-000.18,-000.15,-000.54,19.3,25.7,00.0,00.0,0633.7,31.0
2021-12-05T01:50:00Z,00000200,01000000,-000.03,-000.12,-000.02,0000.57,-000.04,0000.01,-000.07,0000.10,0000.42,19.3,25.6,00.0,00.0,0633.7,31.0
2021-12-05T01:51:00Z,00000200,01000000,0000.21,-000.18,0000.45,0000.47,0000.11,0000.37,0000.20,-000.19,0000.06,19.2,25.6,,00.0,0633.7,31.0
2021-12-05T01:52:00Z,00000200,01000000,-000.66,0000.05,0000.00,0000.05,-000.10,-000.17,0000.20,0000.39,-000.02,19.2,25.6,,00.0,0633.7,31.0
2021-12-05T01:53:00Z,00000200,01000000,-000.16,-000.18,0000.17,0000.49,-000.01,0000.13,-000.05,0000.12,0000.33,19.2,25.6,,00.0,0633.6,31.0
2021-12-05T01:54:00Z,00000200,01000000,-000.31,-000.27,0000.12,-000.33,0000.17,-000.09,0000.17,0000.12,0000.20,19.3,25.5,,00.0,0633.6,31.0
2021-12-05T01:55:00Z,00000200,01000000,0000.34,0000.03,0000.08,0000.08,0000.18,0000.02,0000.27,0000.20,0000.21,19.3,25.6,00.0,00.0,0633.8,31.0
2021-12-05T01:56:00Z,00000200,01000000,0000.32,-000.02,0000.08,0000.22,-000.06,0000.06,-000.19,-000.11,-000.36,19.4,25.6,,00.0,0633.8,31.0
2021-12-05T01:57:00Z,00000200,41000000,,,,,,,0000.66,0000.45,0000.43,19.4,25.7,,00.0,0633.8,31.0
2021-12-05T01:58:00Z,00000200,61000000,,,,,,,-000.15,0000.08,-000.32,19.2,25.8,,00.0,0633.0,31.0
2021-12-05T01:59:00Z,00000200,21000000,,,,,,,-000.29,0000.06,-000.00,19.2,25.9,,00.0,0633.0,31.1
